Terminal Aerodrome Forecast
Issued by NWS

Home | Current Version | Previous Version | Text Only | Print | Product List | Glossary On
Versions: 1 2 3 4 5 6 7 8 9 10 11 12 13 14 15 16 17 18 19 20 21 22 23 24 25 26 27 28 29 30 31 32 33 34 35 36 37 38 39 40 41 42 43 44 45 46 47 48 49 50
000
FTUS41 KCTP 102001 AAA
TAFBFD
TAF AMD
KBFD 102001Z 1020/1118 25008G15KT 3/4SM -SHSN BR SCT014 OVC025
      TEMPO 1021/1023 28013G22KT 1/2SM SHSN VV007
     FM102300 29012G24KT 3/4SM -SHSN BR OVC012=

USA.gov is the U.S. government's official web portal to all federal, state and local government web resources and services.